When you browse on this site, cookies collect data to enhance your experience and personalize the content and advertising you see.
Visit our Privacy Policy to learn more. By continuing to use the site, you agree to this use of cookies and data.
  • In Schweiz
  • Länderverzeichnis
  • Für 7 Tage
  • Wassertemperatur
  • Satellitenkarten
  • Wetterkarte
  • Widgets
  • user-avatar
    Anmelden

    Stündliche Wetter Sion

    Heute, 19 Dezember, Mittwoch

    Zeit Temperatur Niederschläge Wind Luftdruck Luftfeuchtigkeit
    00:00 +4°C° 0 mm 3 m/S 715 mmHg 56%
    01:00 +5°C° 0 mm 2 m/S 715 mmHg 57%
    02:00 +5°C° 0 mm 2 m/S 714 mmHg 59%
    03:00 +5°C° 0 mm 2 m/S 714 mmHg 60%
    04:00 +5°C° 0 mm 2 m/S 714 mmHg 61%
    05:00 +4°C° 0 mm 2 m/S 714 mmHg 62%
    06:00 +4°C° 0 mm 2 m/S 714 mmHg 63%
    07:00 +5°C° 0 mm 2 m/S 714 mmHg 65%
    08:00 +5°C° 0 mm 2 m/S 714 mmHg 67%
    09:00 +6°C° 0 mm 2 m/S 714 mmHg 69%
    10:00 +6°C° 0.1 mm 2 m/S 714 mmHg 72%
    11:00 +7°C° 0.1 mm 2 m/S 713 mmHg 74%
    12:00 +8°C° 0.1 mm 2 m/S 713 mmHg 77%
    13:00 +7°C° 0.9 mm 2 m/S 713 mmHg 82%
    14:00 +6°C° 0.9 mm 2 m/S 712 mmHg 87%
    15:00 +5°C° 0.9 mm 2 m/S 712 mmHg 92%
    16:00 +6°C° 1.8 mm 1 m/S 712 mmHg 94%
    17:00 +6°C° 1.8 mm 1 m/S 712 mmHg 95%
    18:00 +6°C° 1.8 mm 1 m/S 712 mmHg 97%
    19:00 +6°C° 0.8 mm 1 m/S 713 mmHg 97%
    20:00 +6°C° 0.8 mm 1 m/S 713 mmHg 97%
    21:00 +6°C° 0.8 mm 1 m/S 713 mmHg 96%
    22:00 +5°C° 0.4 mm 2 m/S 713 mmHg 96%
    23:00 +5°C° 0.4 mm 2 m/S 713 mmHg 96%

    Morgen, 20 Dezember, Donnerstag

    Zeit Temperatur Niederschläge Wind Luftdruck Luftfeuchtigkeit
    00:00 +5°C° 0.4 mm 2 m/S 714 mmHg 96%
    01:00 +4°C° 0.1 mm 2 m/S 714 mmHg 96%
    02:00 +3°C° 0.1 mm 2 m/S 714 mmHg 95%
    03:00 +3°C° 0.1 mm 2 m/S 714 mmHg 95%
    04:00 +2°C° 0.1 mm 2 m/S 714 mmHg 95%
    05:00 +2°C° 0.1 mm 2 m/S 714 mmHg 94%
    06:00 +2°C° 0.1 mm 2 m/S 715 mmHg 94%
    07:00 +2°C° 0 mm 2 m/S 715 mmHg 93%
    08:00 +3°C° 0 mm 2 m/S 715 mmHg 91%
    09:00 +3°C° 0 mm 2 m/S 715 mmHg 90%
    10:00 +4°C° 0 mm 2 m/S 715 mmHg 86%
    11:00 +5°C° 0 mm 2 m/S 715 mmHg 82%
    12:00 +7°C° 0 mm 2 m/S 715 mmHg 78%
    13:00 +6°C° 0.1 mm 2 m/S 715 mmHg 81%
    14:00 +5°C° 0.1 mm 2 m/S 715 mmHg 84%
    15:00 +4°C° 0.1 mm 2 m/S 715 mmHg 87%
    16:00 +3°C° 0 mm 2 m/S 715 mmHg 87%
    17:00 +2°C° 0 mm 2 m/S 716 mmHg 87%
    18:00 +1°C° 0 mm 2 m/S 716 mmHg 88%
    19:00 +1°C° 0 mm 2 m/S 717 mmHg 86%
    20:00 +2°C° 0 mm 2 m/S 717 mmHg 84%
    21:00 +2°C° 0 mm 2 m/S 717 mmHg 82%
    22:00 +2°C° 0 mm 2 m/S 717 mmHg 82%
    23:00 +2°C° 0 mm 2 m/S 717 mmHg 82%

    übermorgen, 21 Dezember, Freitag

    Zeit Temperatur Niederschläge Wind Luftdruck Luftfeuchtigkeit
    00:00 +2°C° 0 mm 2 m/S 717 mmHg 81%
    01:00 +2°C° 0 mm 2 m/S 717 mmHg 80%
    02:00 +3°C° 0 mm 2 m/S 717 mmHg 79%
    03:00 +3°C° 0 mm 2 m/S 716 mmHg 77%
    04:00 +3°C° 0.2 mm 3 m/S 716 mmHg 79%
    05:00 +4°C° 0.2 mm 3 m/S 716 mmHg 80%
    06:00 +5°C° 0.2 mm 3 m/S 716 mmHg 82%
    07:00 +7°C° 1 mm 3 m/S 716 mmHg 85%
    08:00 +7°C° 1 mm 3 m/S 716 mmHg 88%
    09:00 +8°C° 1 mm 3 m/S 716 mmHg 91%
    10:00 +7°C° 1.1 mm 4 m/S 716 mmHg 91%
    11:00 +8°C° 1.1 mm 4 m/S 716 mmHg 92%
    12:00 +10°C° 1.1 mm 4 m/S 716 mmHg 93%
    13:00 +9°C° 1.1 mm 3 m/S 716 mmHg 94%
    14:00 +9°C° 1.1 mm 3 m/S 716 mmHg 94%
    15:00 +9°C° 1.1 mm 3 m/S 716 mmHg 94%
    16:00 +9°C° 0.3 mm 3 m/S 716 mmHg 94%
    17:00 +9°C° 0.3 mm 3 m/S 716 mmHg 93%
    18:00 +9°C° 0.3 mm 3 m/S 716 mmHg 93%
    19:00 +9°C° 0.8 mm 3 m/S 716 mmHg 94%
    20:00 +9°C° 0.8 mm 3 m/S 716 mmHg 94%
    21:00 +9°C° 0.8 mm 3 m/S 716 mmHg 95%
    22:00 +10°C° 1.7 mm 3 m/S 715 mmHg 95%
    23:00 +10°C° 1.7 mm 3 m/S 715 mmHg 95%

    22 Dezember, Samstag

    Zeit Temperatur Niederschläge Wind Luftdruck Luftfeuchtigkeit
    00:00 +10°C° 1.7 mm 3 m/S 715 mmHg 95%
    01:00 +10°C° 1.5 mm 3 m/S 715 mmHg 95%
    02:00 +10°C° 1.5 mm 3 m/S 715 mmHg 95%
    03:00 +10°C° 1.5 mm 3 m/S 715 mmHg 95%
    04:00 +10°C° 1.2 mm 3 m/S 715 mmHg 95%
    05:00 +10°C° 1.2 mm 3 m/S 715 mmHg 95%
    06:00 +10°C° 1.2 mm 3 m/S 715 mmHg 95%
    07:00 +10°C° 0.5 mm 3 m/S 715 mmHg 95%
    08:00 +10°C° 0.5 mm 3 m/S 715 mmHg 95%
    09:00 +10°C° 0.5 mm 3 m/S 715 mmHg 95%
    10:00 +11°C° 0.3 mm 3 m/S 715 mmHg 95%
    11:00 +11°C° 0.3 mm 4 m/S 715 mmHg 95%
    12:00 +11°C° 0.3 mm 4 m/S 715 mmHg 95%
    13:00 +11°C° 0.1 mm 4 m/S 715 mmHg 95%
    14:00 +10°C° 0.1 mm 4 m/S 715 mmHg 94%
    15:00 +10°C° 0.1 mm 4 m/S 715 mmHg 93%
    16:00 +9°C° 0 mm 3 m/S 716 mmHg 93%
    17:00 +8°C° 0 mm 3 m/S 716 mmHg 92%
    18:00 +8°C° 0 mm 3 m/S 717 mmHg 92%
    19:00 +7°C° 0 mm 3 m/S 717 mmHg 91%
    20:00 +7°C° 0 mm 3 m/S 717 mmHg 90%
    21:00 +7°C° 0 mm 3 m/S 717 mmHg 89%
    22:00 +7°C° 0 mm 3 m/S 718 mmHg 89%
    23:00 +7°C° 0 mm 3 m/S 718 mmHg 89%

    23 Dezember, Sonntag

    Zeit Temperatur Niederschläge Wind Luftdruck Luftfeuchtigkeit
    00:00 +7°C° 0 mm 3 m/S 718 mmHg 89%
    01:00 +7°C° 0.1 mm 3 m/S 718 mmHg 89%
    02:00 +7°C° 0.1 mm 3 m/S 718 mmHg 90%
    03:00 +8°C° 0.1 mm 3 m/S 718 mmHg 90%
    04:00 +8°C° 0.4 mm 2 m/S 718 mmHg 91%
    05:00 +8°C° 0.4 mm 2 m/S 718 mmHg 91%
    06:00 +8°C° 0.4 mm 2 m/S 718 mmHg 92%
    07:00 +9°C° 0.5 mm 2 m/S 718 mmHg 92%
    08:00 +9°C° 0.5 mm 2 m/S 718 mmHg 93%
    09:00 +10°C° 0.5 mm 2 m/S 718 mmHg 93%
    10:00 +10°C° 0.6 mm 2 m/S 718 mmHg 94%
    11:00 +10°C° 0.6 mm 2 m/S 718 mmHg 95%
    12:00 +12°C° 0.6 mm 2 m/S 718 mmHg 96%
    13:00 +12°C° 0.4 mm 2 m/S 718 mmHg 96%
    14:00 +10°C° 0.4 mm 2 m/S 718 mmHg 96%
    15:00 +10°C° 0.4 mm 2 m/S 718 mmHg 95%
    16:00 +10°C° 0.2 mm 2 m/S 718 mmHg 95%
    17:00 +10°C° 0.2 mm 2 m/S 718 mmHg 94%
    18:00 +9°C° 0.2 mm 2 m/S 718 mmHg 94%
    19:00 +9°C° 0.2 mm 2 m/S 718 mmHg 94%
    20:00 +9°C° 0.2 mm 2 m/S 719 mmHg 93%
    21:00 +9°C° 0.2 mm 2 m/S 719 mmHg 93%
    22:00 +9°C° 0.1 mm 2 m/S 719 mmHg 92%
    23:00 +9°C° 0.1 mm 2 m/S 719 mmHg 92%

    24 Dezember, Montag

    Zeit Temperatur Niederschläge Wind Luftdruck Luftfeuchtigkeit
    00:00 +9°C° 0.1 mm 2 m/S 718 mmHg 92%
    01:00 +9°C° 0.2 mm 2 m/S 718 mmHg 92%
    02:00 +9°C° 0.2 mm 2 m/S 718 mmHg 92%
    03:00 +9°C° 0.2 mm 2 m/S 718 mmHg 92%
    04:00 +9°C° 0.3 mm 2 m/S 718 mmHg 92%
    05:00 +9°C° 0.3 mm 2 m/S 718 mmHg 93%
    06:00 +9°C° 0.3 mm 2 m/S 718 mmHg 93%
    07:00 +10°C° 0 mm 2 m/S 719 mmHg 93%
    08:00 +10°C° 0 mm 2 m/S 719 mmHg 93%
    09:00 +10°C° 0 mm 2 m/S 719 mmHg 93%
    10:00 +12°C° 0 mm 2 m/S 719 mmHg 93%
    11:00 +13°C° 0 mm 2 m/S 719 mmHg 93%
    12:00 +14°C° 0 mm 1 m/S 719 mmHg 93%
    13:00 +13°C° 0 mm 1 m/S 718 mmHg 92%
    14:00 +12°C° 0 mm 1 m/S 718 mmHg 92%
    15:00 +12°C° 0 mm 2 m/S 718 mmHg 92%
    16:00 +10°C° 0 mm 2 m/S 718 mmHg 89%
    17:00 +9°C° 0 mm 2 m/S 719 mmHg 87%
    18:00 +8°C° 0 mm 2 m/S 719 mmHg 85%
    19:00 +9°C° 0 mm 1 m/S 719 mmHg 82%
    20:00 +9°C° 0 mm 1 m/S 719 mmHg 80%
    21:00 +9°C° 0 mm 1 m/S 719 mmHg 78%
    22:00 +9°C° 0 mm 1 m/S 719 mmHg 76%
    23:00 +9°C° 0 mm 1 m/S 719 mmHg 74%
    Mehr zeigen